カタログに戻る

STARLINK-36844

運用中通信SSO
NORAD 68117·PAYLOAD·🇺🇸 United States

打ち上げ Mar 8, 2026 から Vandenberg Space Force Base

Loading…

次のパス (今後24時間)

TLE

最新Source: CelesTrak SupGP

元期: Sep 14, 2026, 22:53 UTC

1 68117C 26044S   26257.95395833 -.00034111  00000+0 -10595-2 0  2576
2 68117  97.2851 217.0064 0001651  85.8991 118.1097 15.33438501    11

AllMySatでSTARLINK-36844をリアルタイム追跡

Download on the App Store